Dewpoint
68 67 69 66 63 63 64 67 68 69 70 71 71 71 72 74 74 75 74 74 74 74 73 73 74 74 74 75 75 75 75 74 74 74 73 73 71 71 70 70 69 68
68 68 69 68 65 65 65 66 67 71 70 71 72 72 72 74 74 75 75 74 74 74 74 73 73 73 74 74 75 75 74 74 73 75 73 73 72 72 72 71 70 70
68 68 67 68 66 65 64 65 66 70 71 71 72 72 73 74 74 74 75 74 74 74 74 73 73 73 73 74 74 74 74 74 73 74 74 73 73 72 72 73 72 70
68 68 67 67 67 66 65 65 65 68 71 72 72 73 73 73 73 73 74 76 74 74 74 74 73 73 73 74 74 74 74 74 74 74 74 74 74 73 72 73 73 71
68 68 68 67 67 68 68 65 64 64 69 71 72 73 73 73 73 73 73 75 74 73 74 74 73 74 74 74 73 73 74 74 74 74 73 73 74 74 73 74 73 72
69 69 69 68 67 68 69 67 65 64 65 69 71 72 72 72 72 72 72 74 74 73 73 74 74 74 74 74 74 73 73 73 74 74 73 73 73 74 73 73 73 73
69 69 68 68 67 67 69 69 67 67 64 65 70 71 71 72 72 71 72 73 73 73 73 73 74 73 74 74 74 73 73 74 73 74 74 73 73 73 73 73 73 73
69 69 69 68 67 66 67 69 69 68 67 66 67 69 71 71 71 71 72 72 73 73 73 73 74 73 74 73 74 74 73 74 74 73 73 73 74 73 73 73 73 73
69 69 69 68 67 66 66 66 69 69 69 68 67 67 70 70 70 71 71 72 73 73 73 73 74 73 74 73 74 74 73 73 74 73 73 72 73 73 73 73 73 73
69 69 68 68 67 66 66 65 66 69 70 69 68 67 67 70 70 70 71 71 72 73 73 73 73 74 74 74 73 74 74 73 74 73 73 72 72 72 73 73 73 73
69 68 68 68 67 66 66 65 65 66 69 70 69 68 67 68 70 71 71 71 71 72 73 73 73 73 73 73 73 74 74 73 73 74 74 73 72 72 74 72 72 72
69 68 68 68 67 67 66 65 65 65 66 69 70 69 68 67 68 70 71 71 71 71 73 73 73 73 73 73 73 73 74 73 73 73 74 74 73 73 73 73 72 72
69 69 68 68 68 67 67 66 65 65 65 66 69 69 69 67 66 69 71 71 71 71 71 72 73 73 73 73 73 73 73 73 73 73 73 73 74 73 73 73 73 72
70 69 69 68 68 68 67 66 66 66 65 66 68 68 68 68 66 67 69 71 71 71 71 72 72 72 73 73 73 73 73 73 73 73 73 73 73 73 73 73 74 74
71 70 70 69 69 69 68 67 67 66 66 66 67 68 68 68 67 66 68 70 71 71 71 71 72 72 73 73 73 73 73 73 73 73 73 73 73 73 73 73 73 74
72 71 71 70 69 69 69 68 67 67 67 66 66 67 68 68 67 67 67 68 70 71 71 72 72 72 71 69 69 72 73 73 73 73 73 73 73 73 73 73 73 73
72 72 71 71 70 69 69 69 68 68 67 68 67 67 68 68 68 67 66 67 69 70 71 71 72 72 68 65 66 68 72 72 72 73 73 73 72 72 72 72 72 72
72 72 72 71 71 70 70 69 69 68 68 68 68 68 68 68 67 67 67 67 68 69 70 71 71 69 65 64 65 65 68 72 72 72 72 72 72 72 72 72 72 72
73 72 72 72 71 71 70 70 69 69 68 68 68 68 68 68 68 67 68 68 68 68 69 70 70 67 64 63 64 64 64 69 71 72 72 72 72 72 72 72 72 72
73 72 72 72 72 71 71 70 70 69 69 68 69 69 68 68 67 67 68 68 68 69 69 69 70 67 63 62 62 62 63 66 71 71 71 71 72 72 72 72 72 71
73 73 72 72 72 72 71 71 70 70 69 69 68 68 68 68 67 67 67 68 68 69 69 69 70 66 62 61 60 60 61 64 70 71 71 71 72 72 72 72 72 72
73 73 72 72 72 72 71 71 70 70 70 69 69 68 68 68 68 67 67 68 68 69 69 69 70 64 61 60 60 59 60 67 70 70 70 71 71 72 72 72 72 71
73 73 72 72 72 71 71 71 71 70 70 70 69 68 68 68 68 67 67 67 68 69 69 69 69 65 60 59 59 59 60 67 69 70 70 70 70 71 72 72 72 72
73 73 73 72 72 71 71 71 71 71 70 70 69 68 68 68 68 68 67 67 67 68 69 69 69 66 59 58 58 58 63 68 69 70 70 70 70 71 71 71 73 75
73 73 73 72 72 72 71 71 71 71 70 70 70 69 68 69 69 69 68 68 67 68 71 69 69 67 59 58 57 57 62 69 70 70 70 71 71 71 71 72 72 74
73 73 73 72 72 72 72 71 71 71 70 70 70 70 69 69 69 69 69 68 68 68 69 70 70 70 66 58 57 56 58 70 71 71 71 71 71 72 72 72 72 72